Volver al catálogo

ONEWEB-0567

ActivoComunicacionesPO
NORAD 55147·PAYLOAD·🇬🇧 United Kingdom

Lanzado Jan 10, 2023 desde Cape Canaveral Space Force Station

Loading…

Próximos Pases (próximas 24 horas)

TLE

ActualizadoSource: CelesTrak SupGP

Época: Sep 14, 2026, 19:56 UTC

1 55147C 23004H   26257.83108056 -.00002769  00000+0 -70323-2 0  2573
2 55147  87.9161 317.6563 0001622  96.6515 302.1337 13.18689952    12

Sigue ONEWEB-0567 en tiempo real con AllMySat

Download on the App Store